Location: Wavehorne
(51.0500°N, 0.8333°E)
Time: 15:22:11
(UTC+00:00)

SL-4 R/B - Pass Details

Date: 20 June 2021
Orbit: 428 x 662 km, 51.6° (Epoch: 31 July)

Event Time Altitude Azimuth Distance (km) Brightness Sun altitude
Rises 01:18:46 0° 270° (W) 2,619 5.3 -13.4°
Reaches altitude 10° 01:21:02 10° 272° (W) 1,693 4.3 -13.3°
Maximum altitude 01:24:51 80° 360° (N) 483 1.8 -13.1°
Drops below altitude 10° 01:28:24 10° 87° (E) 1,584 4.7 -12.9°
Sets 01:30:28 0° 89° (E) 2,432 5.6 -12.8°
